Location: Mactaquac Provincial Park
(45.9573°N, 66.8897°W)
Time: 04:08:04
(UTC-03:00)

Daily predictions for brighter satellites

Satellite Brightness Start Highest point End
(mag) Time Altitude Azimuth Time Altitude Azimuth Time Altitude Azimuth
CENTAUR R/B 4.3 00:35:05 28° N 00:35:05 28° N 00:39:59 10° NNE
CZ-3A R/B 4.5 01:27:26 77° E 01:27:26 77° E 02:23:22 10° ENE
ATLAS 3B R/B 4.4 01:27:47 10° NNW 01:32:14 27° N 01:32:14 27° N
SL-16 R/B 4.5 02:32:46 22° ENE 02:33:07 23° ENE 02:37:48 10° N
CZ-4C R/B 4.1 02:44:24 10° NNW 02:54:49 25° E 02:58:04 10° ESE
Resurs 1-4 Rocket 4.5 02:59:33 10° NE 03:01:53 17° ENE 03:01:53 17° ENE
ATLAS 2AS CENTAUR R/B 3.5 03:12:51 55° ENE 03:12:51 55° ENE 03:19:20 10° NE
Cosmos 2082 Rocket 4.5 03:19:59 16° NNW 03:19:59 16° NNW 03:21:50 10° N
ATLAS 5 CENTAUR R/B 4.2 03:29:00 10° NNW 03:33:47 26° NNE 03:38:53 10° E
BREEZE-M DEB (TANK) 4.2 03:38:55 49° ENE 03:38:55 49° ENE 03:46:01 10° E
Nadezhda 3 Rocket 4.3 03:54:36 62° ENE 03:54:36 62° ENE 04:00:23 10° NNE
Cosmos 2219 Rocket 3.4 03:57:05 10° NNW 04:02:26 40° NE 04:07:46 10° SE
CZ-2D R/B 2.7 04:05:12 10° NNE 04:09:27 54° NE 04:09:27 54° NE
SL-16 R/B 3.0 04:17:52 49° NNW 04:17:52 49° NNW 04:22:26 10° NNW
ARIANE 5 R/B 3.2 04:16:24 10° NNE 04:20:07 49° N 04:20:07 49° N
Lacrosse 5 rocket 2.6 04:25:43 43° ENE 04:25:43 43° ENE 04:28:50 10° NE
Cosmos 304 Rocket 4.3 04:27:55 10° NNW 04:38:58 - SSE 04:31:58 55° NNE
BREEZE-M DEB (TANK) 4.4 04:35:41 21° NE 04:35:41 21° NE 04:36:53 10° ENE
Cosmos 2333 Rocket 2.9 04:29:11 10° NNW 04:34:49 54° ENE 04:40:23 10° SE
NOSS 2-3 (D) 4.3 04:35:40 60° NNW 04:35:40 60° NNW 04:41:01 10° NE
Meteor 2-14 Rocket 4.2 04:30:12 10° N 04:36:18 83° W 04:36:45 76° SSW
Cosmos 1821 Rocket 3.9 04:33:17 10° N 04:39:41 81° W 04:41:04 58° S
CZ-4C R/B 2.9 04:32:52 10° NW 04:40:28 57° SW 04:47:26 10° SSE
CZ-2D R/B 4.3 04:36:47 10° NNE 04:39:47 45° NE 04:39:47 45° NE
ERS-2 4.4 04:38:49 10° N 04:40:04 20° N 04:40:04 20° N
Lacrosse 5 3.7 04:41:13 19° SSE 04:42:43 22° ESE 04:46:33 10° ENE
Resurs 1-4 Rocket 2.2 04:38:11 10° N 04:42:58 62° NW 04:42:58 62° NW
Cosmos 1605 Rocket 4.2 04:38:30 10° N 04:44:37 67° E 04:50:47 10° SSE
Cosmos 1934 Rocket 3.9 04:39:20 10° N 04:45:42 87° W 04:48:43 33° S
Meteor 1-12 Rocket 4.2 04:45:49 10° NNW 04:51:45 68° W 04:52:14 65° SW
SL-24 R/B 4.4 04:50:43 48° SSE 04:52:09 82° E 04:57:03 10° N
NOSS 0 Rocket 3.9 04:50:27 10° NNW 04:56:43 85° ENE 05:02:58 10° SSE
CZ-4B R/B 3.8 04:56:07 10° NNE 05:01:24 53° E 05:06:01 14° S
ATLAS 2AS CENTAUR R/B 3.7 05:00:18 34° WNW 05:02:51 43° NW 05:10:34 10° NE
Thor Agena Rocket 4.4 04:58:38 10° SE 05:03:45 53° ENE 05:08:55 10° N
Cosmos 2237 Rocket 2.3 04:59:23 10° NNW 05:05:03 74° ENE 05:10:40 10° SSE
Cosmos 2084 3.4 05:07:25 61° SE 05:07:26 61° SE 05:11:12 10° NE
ARGOS Delta rocket 4.3 05:05:14 10° N 05:09:31 45° WNW 05:09:31 45° WNW
IRS-1D 4.4 05:06:24 10° N 05:10:56 34° WNW 05:10:56 34° WNW
MOZ.5/SAFIR/RUBIN 5/SL-8 3.7 05:10:39 56° SSW 05:11:26 67° W 05:16:11 10° NNW
CZ-2C R/B 3.6 05:08:42 19° SSE 05:11:55 83° WSW 05:16:35 10° NNW
Gbstr 26 Del rocket 4.4 05:08:38 34° WNW 05:12:01 61° SW 05:19:56 10° SE
Cosmos 1666 4.5 05:10:01 10° N 05:13:36 33° ENE 05:17:07 10° SE
RESURS DK-1 4.3 05:10:44 13° SSE 05:13:42 27° ESE 05:17:13 10° NE
Okean O Rocket 1.5 05:10:51 10° NNE 05:15:17 87° E 05:16:41 44° SSW
Cosmos 968 Rocket 3.6 05:16:28 48° W 05:17:04 50° WNW 05:22:05 10° NNE
Cosmos 1980 3.6 05:12:31 10° NNW 05:18:14 83° WSW 05:23:54 10° SSE
Cosmos 2219 3.5 05:18:03 41° W 05:19:00 45° WNW 05:24:25 10° NNE
ATLAS 5 CENTAUR R/B 2.4 05:13:18 10° NW 05:19:16 86° NE 05:25:43 10° SE
MOS 1-B 4.5 05:13:56 10° N 05:19:34 55° WNW 05:21:22 39° WSW
UNKNOWN OBJECT B 4.1 05:16:11 10° N 05:18:39 28° NW 05:18:39 28° NW
Cosmos 923 Rocket 3.9 05:16:07 10° NNW 05:21:29 74° WSW 05:26:48 10° SSE
Tiangong 1 3.2 05:22:44 19° SE 05:22:44 19° SE 05:24:37 10° ESE
SL-16 R/B 3.2 05:17:29 10° NNW 05:23:01 48° ENE 05:28:30 10° SE
Okean 1 4.2 05:26:40 33° NW 05:26:40 33° NW 05:29:37 10° N
Cosmos 1025 Rocket 3.4 05:22:17 13° S 05:26:06 64° E 05:30:24 10° NNE
NOSS 3-2 (A) 3.9 05:22:40 10° NW 05:30:02 64° WSW 05:37:57 10° SSE
Cosmos 2344 3.7 05:26:23 29° SW 05:30:52 74° NW 05:40:03 10° NE
Cosmos 1606 Rocket 3.8 05:26:30 10° N 05:30:55 71° E 05:35:15 10° SSE
Cosmos 1346 Rocket 4.0 05:28:03 10° SSE 05:31:47 42° E 05:35:35 10° NNE
Cosmos 1461 3.8 05:31:20 33° WNW 05:31:52 34° NW 05:35:51 10° NNE
USA 238 4.5 05:34:56 28° WSW 05:34:56 28° WSW 05:40:03 10° SSW
Cosmos 1743 2.6 05:32:33 10° NNW 05:36:21 62° W 05:39:18 16° S
BREEZE-M DEB (TANK) 3.5 05:36:06 26° SSW 05:38:08 44° SSE 05:40:41 10° E
Cosmos 2227 Rocket 2.2 05:35:19 17° SSW 05:39:43 85° ESE 05:45:26 10° NNE
PSLV R/B 4.2 05:36:36 10° N 05:40:31 45° WNW 05:41:30 37° WSW
Cosmos 1726 Rocket 3.6 05:38:22 10° N 05:42:48 80° E 05:47:10 10° SSE
Okean 1-7 Rocket 3.8 05:41:51 33° SW 05:43:20 47° WNW 05:47:37 10° N
Cosmos 773 Rocket 4.5 05:39:27 10° NW 05:44:11 35° WSW 05:48:50 10° SSW
ADEOS II 2.5 05:39:20 10° NNE 05:44:35 64° ESE 05:49:47 10° S
CZ-4B R/B 3.1 05:40:26 10° N 05:44:42 63° WNW 05:47:43 20° SSW
Cosmos 2219 Rocket 2.7 05:41:12 10° NW 05:46:20 36° WSW 05:51:26 10° S
USA 129 4.1 05:45:09 10° SE 05:46:52 24° ENE 05:48:28 10° NNE
COS B Rocket 2.1 05:48:04 36° SSE 05:48:49 70° E 05:51:13 10° N
Cosmos 2297 Rocket 2.4 05:43:52 10° SSW 05:49:29 75° ESE 05:55:09 10° NNE
CZ-2D R/B 3.4 05:46:19 10° NNW 05:50:01 20° WNW 05:50:47 19° WNW
Cosmos 1892 Rocket 3.7 05:49:49 10° S 05:54:17 79° E 05:58:48 10° NNE
Meteor 1-15 Rocket 4.3 05:49:21 10° N 05:54:58 83° E 06:00:34 10° SSE
CZ-4B DEB 4.2 05:50:37 10° N 05:56:01 61° WNW 06:01:24 10° SSW
ASTRO F (AKARI) 4.3 05:53:54 10° S 05:56:57 50° W 06:00:07 10° NNW
Cosmos 1727 Rocket 4.2 05:51:46 10° SSW 05:57:50 52° WNW 06:03:59 10° N
Cosmos 2016 Rocket 4.3 05:52:53 10° N 05:59:16 73° E 06:05:34 10° SSE
ARIANE 5 R/B 4.3 05:57:32 10° NNW 05:59:51 13° NW 06:00:27 13° WNW
SL-16 R/B 4.4 06:02:59 10° WNW 06:02:59 10° WNW 06:03:10 10° WNW
PAYLOAD B 4.5 05:56:54 10° N 06:02:10 48° WNW 06:07:22 10° SW
PSLV R/B 3.5 05:58:30 10° N 06:02:52 73° WNW 06:07:09 10° SSW
Okean 2 3.4 05:58:56 10° S 06:03:06 89° WNW 06:07:17 10° N
Lacrosse 5 rocket 2.7 06:01:27 19° WNW 06:03:57 31° NNW 06:07:57 10° NE
COBE Rocket 4.5 05:59:31 10° NNE 06:04:19 58° E 06:08:57 10° S
Feng Yun 1-1 Rocket 4.4 05:59:26 10° NNE 06:05:04 81° ESE 06:10:50 10° SSW
MOS 1 Rocket 3.9 06:00:27 10° NNE 06:05:06 60° E 06:10:01 10° S
Cosmos 2173 Rocket 3.9 05:59:20 10° N 06:05:27 77° W 06:11:33 10° S
NOSS 3-2 (C) 4.2 05:59:21 10° NW 06:06:31 49° WSW 06:14:10 10° S
Cosmos 220 Rocket 4.0 06:04:15 14° SW 06:07:49 59° WNW 06:12:01 10° NNE
CENTAUR R/B 3.3 06:04:33 10° NW 06:12:16 74° NE 06:20:33 10° SE
Meteor 1-31 Rocket 3.3 06:08:29 10° NNE 06:12:21 64° E 06:16:14 10° S
Okean-O 2.6 06:10:19 10° N 06:14:45 70° WNW 06:19:10 10° SSW
Cosmos 2112 Rocket 4.4 06:09:56 10° NW 06:14:50 38° WSW 06:19:40 10° S
Cosmos 1459 Rocket 4.0 06:09:57 10° NNW 06:16:14 63° W 06:22:28 10° S
ADEOS Rocket 3.4 06:10:47 10° N 06:18:01 59° WNW 06:24:33 10° SW
Cosmos 2082 3.9 06:12:43 10° SW 06:18:12 54° WNW 06:23:44 10° NNE
Cosmos 2333 Rocket 3.1 06:14:07 10° NW 06:18:43 26° WSW 06:23:17 10° SSW
Cosmos 1680 Rocket 4.2 06:15:30 10° NW 06:20:04 30° W 06:24:35 10° SSW
Cosmos 2228 3.0 06:17:07 10° NNW 06:21:32 74° W 06:25:54 10° S
USA 102 4.2 06:21:02 10° ESE 06:22:04 25° NE 06:24:10 10° N
Resurs 1-4 Rocket 4.0 06:20:48 10° NW 06:22:19 11° NW 06:23:51 10° WNW
EXPRESS MD2 3.5 06:22:09 13° WNW 06:25:01 76° SSW 06:31:19 10° ESE
Lacrosse 5 1.9 06:20:27 12° SW 06:25:12 78° NW 06:30:18 10° NE
CZ-4C R/B 4.3 06:26:04 12° W 06:27:18 12° WSW 06:30:12 10° SW
Cosmos 2058 Rocket 3.3 06:24:02 10° NNW 06:28:12 44° W 06:32:19 10° SSW
NOSS 3-4 (A) 3.8 06:26:22 10° WSW 06:32:35 53° NW 06:39:05 10° NNE
NOSS 3-4 (C) 3.8 06:26:27 10° WSW 06:32:42 53° NW 06:39:11 10° NNE
SOZ 3.9 06:31:29 10° WNW 06:34:08 72° NNE 06:36:22 10° ESE
Cosmos 192 4.5 06:29:36 10° NNW 06:34:35 81° ENE 06:39:31 10° SSE
Cosmos 2298 Rocket 4.0 06:32:26 10° SSW 06:37:43 74° WNW 06:43:03 10° NNE
CZ-4B R/B 4.2 06:37:21 10° N 06:41:40 25° WNW 06:46:01 10° WSW
BREEZE-M DEB (TANK) 3.7 06:28:47 10° WNW 06:42:18 62° SW 06:46:06 10° SE
Aureole 2 Rocket 2.6 06:40:27 10° NNW 06:43:57 48° WSW 06:47:07 10° S
COSMO-SKYMED 1 2.5 06:41:13 10° SSE 06:45:33 82° WSW 06:49:55 10° NNW
Meteor 2-4 Rocket 4.4 06:41:34 10° SW 06:46:56 37° WNW 06:52:25 10° N
Cosmos 2237 Rocket 3.5 06:44:48 10° WNW 06:48:27 18° W 06:52:04 10° SW
Cosmos 1666 4.1 06:46:17 10° NW 06:49:03 19° W 06:51:46 10° SW
Cosmos 1515 3.7 06:45:15 10° S 06:49:05 87° W 06:52:56 10° N
Radarsat Rocket 4.4 06:42:52 10° NNE 06:49:57 86° ESE 06:56:11 10° SSW
